This is the latest recevied weather packets stored in our database for station/object DW6201. If no packets are shown the sender has not sent any weather packets the latest 1 day(s).
| Time | Temp. | Humidity | Pressure | Rain* | Wind** | Luminosity | Snow |
|---|---|---|---|---|---|---|---|
| 1778025001 | 9.44° C | 41% | 1012.9 hPa | 0 mm | 0.89 m/s, 308° | - | - |
| 1778024701 | 9.44° C | 42% | 1012.9 hPa | 0 mm | 0.45 m/s, 349° | - | - |
| 1778024400 | 9.44° C | 41% | 1012.9 hPa | 0 mm | 1.34 m/s, 345° | - | - |
| 1778024100 | 9.44° C | 42% | 1012.9 hPa | 0 mm | 1.79 m/s, 341° | - | - |
| 1778023801 | 9.44° C | 41% | 1012.9 hPa | 0 mm | 0.45 m/s, 317° | - | - |
| 1778023500 | 10° C | 41% | 1012.9 hPa | 0 mm | 1.34 m/s, 325° | - | - |
| 1778023201 | 10° C | 41% | 1012.9 hPa | 0 mm | 0.45 m/s, 300° | - | - |
| 1778022900 | 10° C | 41% | 1012.5 hPa | 0 mm | 0.45 m/s, 322° | - | - |
| 1778022600 | 10° C | 41% | 1012.9 hPa | 0 mm | 0.45 m/s, 331° | - | - |
| 1778022300 | 10° C | 40% | 1012.9 hPa | 0 mm | 2.24 m/s, 318° | - | - |
| 1778022000 | 10° C | 41% | 1012.9 hPa | 0 mm | 0.45 m/s, 320° | - | - |
| 1778021700 | 10° C | 41% | 1012.5 hPa | 0 mm | 0.89 m/s, 266° | - | - |
| 1778021400 | 10° C | 40% | 1012.9 hPa | 0 mm | 1.79 m/s, 300° | - | - |
| 1778021101 | 10° C | 40% | 1012.9 hPa | 0 mm | 0.45 m/s, 326° | - | - |
| 1778020800 | 10° C | 39% | 1012.9 hPa | 0 mm | 1.34 m/s, 291° | - | - |
| 1778020500 | 10° C | 39% | 1012.5 hPa | 0 mm | 1.79 m/s, 304° | - | - |
| 1778020201 | 10° C | 40% | 1012.5 hPa | 0 mm | 0.45 m/s, 348° | - | - |
| 1778019901 | 10° C | 39% | 1012.5 hPa | 0 mm | 0.45 m/s, 268° | - | - |
| 1778019601 | 10° C | 40% | 1012.9 hPa | 0 mm | 0.45 m/s, 251° | - | - |
| 1778019300 | 10° C | 40% | 1012.9 hPa | 0 mm | 0.89 m/s, 329° | - | - |
| 1778019000 | 10° C | 40% | 1012.9 hPa | 0 mm | 0.45 m/s, 332° | - | - |
| 1778018701 | 10° C | 40% | 1012.9 hPa | 0 mm | 0.89 m/s, 315° | - | - |
| 1778018400 | 10° C | 41% | 1012.9 hPa | 0 mm | 0.89 m/s, 333° | - | - |
| 1778018101 | 10° C | 39% | 1012.5 hPa | 0 mm | 1.34 m/s, 312° | - | - |
| 1778017801 | 10° C | 40% | 1012.5 hPa | 0 mm | 0.45 m/s, 328° | - | - |
* Rain latest hour (hover to see other rain measurements)
** Current wind speed in m/s (hover to see current wind gust speed)